• en Belgique
  • Liste des pays
  • À 7 jours
  • Température de l'eau
  • Carte satellitaire
  • Carte météo
  • Widgets météo
  • user-avatar
    Se connecter

    Météo par heure à Pritykino

    Ce jour, 21 Septembre, Vendredi

    Heure Température Précipitation Vent Pression Humidité
    00:00 +15°C° 0 mm 2 m/s 751 mmHg 93%
    01:00 +14°C° 0 mm 2 m/s 751 mmHg 93%
    02:00 +14°C° 0 mm 2 m/s 752 mmHg 94%
    03:00 +14°C° 0 mm 2 m/s 752 mmHg 94%
    04:00 +14°C° 0 mm 2 m/s 752 mmHg 95%
    05:00 +13°C° 0 mm 2 m/s 752 mmHg 95%
    06:00 +15°C° 0 mm 2 m/s 752 mmHg 89%
    07:00 +16°C° 0 mm 2 m/s 753 mmHg 83%
    08:00 +18°C° 0 mm 2 m/s 753 mmHg 77%
    09:00 +20°C° 0 mm 2 m/s 753 mmHg 71%
    10:00 +21°C° 0 mm 3 m/s 753 mmHg 65%
    11:00 +24°C° 0 mm 3 m/s 753 mmHg 59%
    12:00 +25°C° 0 mm 3 m/s 753 mmHg 57%
    13:00 +25°C° 0 mm 3 m/s 753 mmHg 56%
    14:00 +26°C° 0 mm 3 m/s 753 mmHg 55%
    15:00 +25°C° 0 mm 2 m/s 753 mmHg 61%
    16:00 +23°C° 0 mm 2 m/s 753 mmHg 67%
    17:00 +21°C° 0 mm 2 m/s 753 mmHg 73%
    18:00 +20°C° 0 mm 2 m/s 753 mmHg 77%
    19:00 +19°C° 0 mm 2 m/s 753 mmHg 81%
    20:00 +18°C° 0 mm 2 m/s 753 mmHg 84%
    21:00 +17°C° 0 mm 2 m/s 753 mmHg 85%
    22:00 +17°C° 0 mm 2 m/s 753 mmHg 86%
    23:00 +16°C° 0 mm 2 m/s 753 mmHg 86%

    Demain, 22 Septembre, Samedi

    Heure Température Précipitation Vent Pression Humidité
    00:00 +16°C° 0 mm 2 m/s 752 mmHg 87%
    01:00 +16°C° 0 mm 2 m/s 752 mmHg 87%
    02:00 +15°C° 0 mm 2 m/s 752 mmHg 88%
    03:00 +15°C° 0 mm 2 m/s 752 mmHg 89%
    04:00 +14°C° 0 mm 3 m/s 752 mmHg 90%
    05:00 +14°C° 0 mm 3 m/s 752 mmHg 91%
    06:00 +17°C° 0 mm 3 m/s 751 mmHg 86%
    07:00 +18°C° 0 mm 3 m/s 751 mmHg 81%
    08:00 +19°C° 0 mm 4 m/s 751 mmHg 76%
    09:00 +21°C° 0 mm 5 m/s 751 mmHg 68%
    10:00 +23°C° 0 mm 5 m/s 750 mmHg 60%
    11:00 +26°C° 0 mm 6 m/s 750 mmHg 52%
    12:00 +26°C° 0 mm 6 m/s 749 mmHg 51%
    13:00 +26°C° 0 mm 6 m/s 749 mmHg 50%
    14:00 +27°C° 0 mm 6 m/s 748 mmHg 49%
    15:00 +25°C° 0.1 mm 5 m/s 748 mmHg 55%
    16:00 +23°C° 0.1 mm 4 m/s 747 mmHg 60%
    17:00 +22°C° 0.1 mm 4 m/s 747 mmHg 66%
    18:00 +21°C° 0 mm 4 m/s 747 mmHg 68%
    19:00 +20°C° 0 mm 4 m/s 747 mmHg 70%
    20:00 +19°C° 0 mm 4 m/s 746 mmHg 72%
    21:00 +19°C° 0.2 mm 4 m/s 746 mmHg 74%
    22:00 +19°C° 0.2 mm 4 m/s 746 mmHg 76%
    23:00 +18°C° 0.2 mm 4 m/s 746 mmHg 78%

    Après-demain, 23 Septembre, Dimanche

    Heure Température Précipitation Vent Pression Humidité
    00:00 +17°C° 0.4 mm 4 m/s 746 mmHg 81%
    01:00 +16°C° 0.4 mm 3 m/s 746 mmHg 85%
    02:00 +14°C° 0.4 mm 3 m/s 745 mmHg 88%
    03:00 +14°C° 0.2 mm 3 m/s 745 mmHg 89%
    04:00 +14°C° 0.2 mm 2 m/s 745 mmHg 90%
    05:00 +13°C° 0.2 mm 2 m/s 745 mmHg 91%
    06:00 +13°C° 0.5 mm 2 m/s 745 mmHg 90%
    07:00 +11°C° 0.5 mm 3 m/s 745 mmHg 90%
    08:00 +11°C° 0.5 mm 3 m/s 744 mmHg 90%
    09:00 +11°C° 0.9 mm 3 m/s 744 mmHg 90%
    10:00 +10°C° 0.9 mm 3 m/s 744 mmHg 90%
    11:00 +10°C° 0.9 mm 3 m/s 744 mmHg 91%
    12:00 +10°C° 2.2 mm 3 m/s 744 mmHg 91%
    13:00 +8°C° 2.2 mm 4 m/s 744 mmHg 92%
    14:00 +8°C° 2.2 mm 4 m/s 744 mmHg 93%
    15:00 +9°C° 1.4 mm 3 m/s 744 mmHg 93%
    16:00 +9°C° 1.4 mm 3 m/s 744 mmHg 93%
    17:00 +9°C° 1.4 mm 3 m/s 744 mmHg 93%
    18:00 +9°C° 0.2 mm 2 m/s 744 mmHg 94%
    19:00 +9°C° 0.2 mm 2 m/s 744 mmHg 95%
    20:00 +9°C° 0.2 mm 2 m/s 745 mmHg 96%
    21:00 +9°C° 0 mm 2 m/s 745 mmHg 96%
    22:00 +8°C° 0 mm 2 m/s 745 mmHg 96%
    23:00 +8°C° 0 mm 2 m/s 745 mmHg 96%

    24 Septembre, Lundi

    Heure Température Précipitation Vent Pression Humidité
    00:00 +8°C° 0 mm 2 m/s 745 mmHg 96%
    01:00 +7°C° 0 mm 2 m/s 745 mmHg 96%
    02:00 +7°C° 0 mm 2 m/s 745 mmHg 96%
    03:00 +7°C° 0 mm 2 m/s 745 mmHg 96%
    04:00 +7°C° 0 mm 3 m/s 745 mmHg 96%
    05:00 +5°C° 0 mm 3 m/s 745 mmHg 97%
    06:00 +7°C° 0 mm 3 m/s 745 mmHg 94%
    07:00 +8°C° 0 mm 3 m/s 745 mmHg 92%
    08:00 +7°C° 0 mm 4 m/s 745 mmHg 90%
    09:00 +9°C° 0 mm 3 m/s 746 mmHg 87%
    10:00 +9°C° 0 mm 3 m/s 746 mmHg 84%
    11:00 +10°C° 0 mm 3 m/s 746 mmHg 81%
    12:00 +10°C° 0 mm 3 m/s 746 mmHg 77%
    13:00 +12°C° 0 mm 2 m/s 746 mmHg 73%
    14:00 +13°C° 0 mm 2 m/s 746 mmHg 69%
    15:00 +12°C° 0 mm 2 m/s 746 mmHg 72%
    16:00 +12°C° 0 mm 2 m/s 746 mmHg 75%
    17:00 +10°C° 0 mm 2 m/s 746 mmHg 79%
    18:00 +10°C° 0.1 mm 2 m/s 745 mmHg 81%
    19:00 +10°C° 0.1 mm 3 m/s 745 mmHg 82%
    20:00 +9°C° 0.1 mm 3 m/s 744 mmHg 84%
    21:00 +9°C° 0.6 mm 3 m/s 744 mmHg 86%
    22:00 +8°C° 0.6 mm 4 m/s 743 mmHg 88%
    23:00 +8°C° 0.6 mm 4 m/s 743 mmHg 90%

    25 Septembre, Mardi

    Heure Température Précipitation Vent Pression Humidité
    00:00 +8°C° 1 mm 5 m/s 742 mmHg 89%
    01:00 +8°C° 1 mm 5 m/s 741 mmHg 89%
    02:00 +8°C° 1 mm 6 m/s 740 mmHg 89%
    03:00 +8°C° 2.1 mm 6 m/s 739 mmHg 90%
    04:00 +8°C° 2.1 mm 6 m/s 738 mmHg 90%
    05:00 +8°C° 2.1 mm 7 m/s 737 mmHg 90%
    06:00 +8°C° 1 mm 7 m/s 736 mmHg 90%
    07:00 +8°C° 1 mm 6 m/s 736 mmHg 90%
    08:00 +9°C° 1 mm 6 m/s 735 mmHg 90%
    09:00 +9°C° 0.3 mm 6 m/s 735 mmHg 88%
    10:00 +9°C° 0.3 mm 6 m/s 735 mmHg 86%
    11:00 +10°C° 0.3 mm 5 m/s 734 mmHg 85%
    12:00 +10°C° 0.4 mm 5 m/s 734 mmHg 84%
    13:00 +11°C° 0.4 mm 4 m/s 734 mmHg 83%
    14:00 +11°C° 0.4 mm 4 m/s 734 mmHg 83%
    15:00 +10°C° 0.4 mm 3 m/s 734 mmHg 85%
    16:00 +10°C° 0.4 mm 3 m/s 734 mmHg 87%
    17:00 +9°C° 0.4 mm 2 m/s 734 mmHg 90%
    18:00 +9°C° 0.3 mm 2 m/s 734 mmHg 91%
    19:00 +9°C° 0.3 mm 2 m/s 734 mmHg 92%
    20:00 +8°C° 0.3 mm 2 m/s 734 mmHg 94%
    21:00 +8°C° 0.6 mm 2 m/s 734 mmHg 94%
    22:00 +8°C° 0.6 mm 2 m/s 734 mmHg 95%
    23:00 +8°C° 0.6 mm 2 m/s 734 mmHg 95%

    26 Septembre, Mercredi

    Heure Température Précipitation Vent Pression Humidité
    00:00 +8°C° 0.5 mm 2 m/s 734 mmHg 95%
    01:00 +8°C° 0.5 mm 2 m/s 734 mmHg 95%
    02:00 +8°C° 0.5 mm 2 m/s 735 mmHg 96%
    03:00 +8°C° 0.5 mm 2 m/s 735 mmHg 96%
    04:00 +8°C° 0.5 mm 2 m/s 735 mmHg 96%
    05:00 +8°C° 0.5 mm 2 m/s 735 mmHg 95%
    06:00 +8°C° 0.3 mm 2 m/s 736 mmHg 94%
    07:00 +8°C° 0.3 mm 3 m/s 736 mmHg 93%
    08:00 +8°C° 0.3 mm 3 m/s 737 mmHg 92%
    09:00 +8°C° 0.3 mm 3 m/s 738 mmHg 91%
    10:00 +8°C° 0.3 mm 4 m/s 739 mmHg 90%
    11:00 +8°C° 0.3 mm 4 m/s 739 mmHg 89%
    12:00 +8°C° 0.2 mm 4 m/s 740 mmHg 88%
    13:00 +8°C° 0.2 mm 4 m/s 741 mmHg 87%
    14:00 +8°C° 0.2 mm 5 m/s 742 mmHg 87%
    15:00 +8°C° 0.1 mm 5 m/s 743 mmHg 88%
    16:00 +7°C° 0.1 mm 4 m/s 744 mmHg 89%
    17:00 +7°C° 0.1 mm 4 m/s 745 mmHg 90%
    18:00 +7°C° 0.2 mm 4 m/s 745 mmHg 90%
    19:00 +7°C° 0.2 mm 4 m/s 746 mmHg 90%
    20:00 +7°C° 0.2 mm 5 m/s 747 mmHg 90%
    21:00 +7°C° 0.1 mm 4 m/s 748 mmHg 89%
    22:00 +6°C° 0.1 mm 4 m/s 749 mmHg 89%
    23:00 +6°C° 0.1 mm 4 m/s 749 mmHg 89%
    Voir plus